TimeAEST,TemperatureF,Dew PointF,Humidity,Sea Level PressureIn,VisibilityMPH,Wind Direction,Wind SpeedMPH,Gust SpeedMPH,PrecipitationIn,Events,Conditions,WindDirDegrees,DateUTC
12:00 AM,33,32,95,30.26,,ESE,3.5,,,,,120,2013-06-21 14:00:00
12:00 AM,33.8,32.0,93,30.21,6.2,ESE,3.5,-,N/A,,Unknown,120,2013-06-21 14:00:00
12:30 AM,28.4,26.6,93,30.21,6.2,NNW,2.3,-,N/A,,Unknown,330,2013-06-21 14:30:00
1:00 AM,28,27,92,30.25,,Calm,Calm,,,,,,2013-06-21 15:00:00
1:00 AM,28.4,26.6,93,30.21,6.2,Calm,Calm,-,N/A,,Unknown,0,2013-06-21 15:00:00
1:30 AM,24.8,23.0,93,30.21,6.2,NNW,1.2,-,N/A,,Unknown,330,2013-06-21 15:30:00
2:00 AM,26.6,24.8,93,30.21,6.2,SW,1.2,-,N/A,,Unknown,230,2013-06-21 16:00:00
2:30 AM,24.8,24.8,100,30.21,6.2,Calm,Calm,-,N/A,,Unknown,0,2013-06-21 16:30:00
3:00 AM,26,25,93,30.26,,WNW,4.6,,,,,300,2013-06-21 17:00:00
3:00 AM,26.6,24.8,93,30.21,6.2,WNW,4.6,-,N/A,,Unknown,300,2013-06-21 17:00:00
3:30 AM,24.8,23.0,93,30.21,6.2,SSW,1.2,-,N/A,,Unknown,210,2013-06-21 17:30:00
4:00 AM,26,24,88,30.25,,WSW,1.2,,,,,250,2013-06-21 18:00:00
4:00 AM,24.8,23.0,93,30.21,6.2,WSW,1.2,-,N/A,,Unknown,250,2013-06-21 18:00:00
4:30 AM,24.8,23.0,93,30.21,6.2,WSW,3.5,-,N/A,,Unknown,250,2013-06-21 18:30:00
5:00 AM,24.8,23.0,93,30.21,6.2,East,2.3,-,N/A,,Unknown,80,2013-06-21 19:00:00
5:30 AM,23.0,21.2,93,30.24,6.2,North,2.3,-,N/A,,Unknown,360,2013-06-21 19:30:00
6:00 AM,24,22,86,30.28,,Calm,Calm,,,,,,2013-06-21 20:00:00
6:00 AM,23.0,21.2,93,30.24,-9999.0,Calm,Calm,-,N/A,,Clear,0,2013-06-21 20:00:00
6:30 AM,24.8,23.0,93,30.24,6.2,Calm,Calm,-,N/A,Fog,Shallow Fog,0,2013-06-21 20:30:00
7:00 AM,24,23,94,30.29,,WSW,2.3,,,,,240,2013-06-21 21:00:00
7:00 AM,24.8,23.0,93,30.24,6.2,WSW,2.3,-,N/A,Fog,Shallow Fog,240,2013-06-21 21:00:00
7:30 AM,24.8,23.0,93,30.27,6.2,Calm,Calm,-,N/A,Fog,Shallow Fog,0,2013-06-21 21:30:00
8:00 AM,26.6,24.8,93,30.27,-9999.0,SW,2.3,-,N/A,,Clear,230,2013-06-21 22:00:00
8:30 AM,32.0,30.2,93,30.27,6.2,Calm,Calm,-,N/A,,Partly Cloudy,0,2013-06-21 22:30:00
9:00 AM,35,31,79,30.33,,SE,2.3,,,,,130,2013-06-21 23:00:00
9:00 AM,35.6,30.2,81,30.27,6.2,SE,2.3,-,N/A,,Partly Cloudy,130,2013-06-21 23:00:00
9:30 AM,37.4,32.0,81,30.27,6.2,SE,3.5,-,N/A,,Partly Cloudy,140,2013-06-21 23:30:00
10:00 AM,40,33,67,30.33,,NNW,2.3,,,,,340,2013-06-22 00:00:00
10:00 AM,41.0,33.8,76,30.30,6.2,NNW,2.3,-,N/A,,Partly Cloudy,340,2013-06-22 00:00:00
10:30 AM,44.6,35.6,71,30.30,6.2,SW,1.2,-,N/A,,Partly Cloudy,220,2013-06-22 00:30:00
11:00 AM,44.6,33.8,66,30.27,6.2,West,3.5,-,N/A,,Partly Cloudy,280,2013-06-22 01:00:00
11:30 AM,48.2,37.4,66,30.27,6.2,WSW,4.6,-,N/A,,Partly Cloudy,250,2013-06-22 01:30:00
12:00 PM,51,37,49,30.30,,SW,4.6,,,,,230,2013-06-22 02:00:00
12:00 PM,50.0,37.4,62,30.24,6.2,SW,4.6,-,N/A,,Partly Cloudy,230,2013-06-22 02:00:00
12:30 PM,51.8,37.4,58,30.24,6.2,SSW,5.8,-,N/A,,Scattered Clouds,200,2013-06-22 02:30:00
1:00 PM,51,37,48,30.28,,SE,5.8,,,,,140,2013-06-22 03:00:00
1:00 PM,51.8,37.4,58,30.24,6.2,SE,5.8,-,N/A,,Mostly Cloudy,140,2013-06-22 03:00:00
1:30 PM,51.8,37.4,58,30.24,6.2,South,4.6,-,N/A,,Mostly Cloudy,170,2013-06-22 03:30:00
2:00 PM,51.8,37.4,58,30.24,6.2,ESE,5.8,-,N/A,,Mostly Cloudy,120,2013-06-22 04:00:00
2:30 PM,51.8,37.4,58,30.24,6.2,East,5.8,-,N/A,,Scattered Clouds,80,2013-06-22 04:30:00
3:00 PM,52,39,51,30.29,,ESE,11.5,,,,,120,2013-06-22 05:00:00
3:00 PM,51.8,39.2,62,30.24,6.2,ESE,11.5,-,N/A,,Scattered Clouds,110,2013-06-22 05:00:00
3:30 PM,50.0,39.2,66,30.24,6.2,ESE,12.7,-,N/A,,Scattered Clouds,110,2013-06-22 05:30:00
4:00 PM,51,37,49,30.30,,ESE,12.7,,,,,120,2013-06-22 06:00:00
4:00 PM,50.0,37.4,62,30.24,6.2,ESE,12.7,-,N/A,,Scattered Clouds,120,2013-06-22 06:00:00
4:30 PM,50.0,37.4,62,30.27,6.2,ESE,11.5,-,N/A,,Mostly Cloudy,120,2013-06-22 06:30:00
5:00 PM,48.2,39.2,71,30.27,6.2,SE,8.1,-,N/A,,Scattered Clouds,140,2013-06-22 07:00:00
5:30 PM,46.4,39.2,76,30.27,6.2,SE,8.1,-,N/A,,Scattered Clouds,140,2013-06-22 07:30:00
6:00 PM,45,38,68,30.35,,ESE,9.2,,,,,110,2013-06-22 08:00:00
6:00 PM,44.6,37.4,76,30.30,6.2,ESE,9.2,-,N/A,,Scattered Clouds,110,2013-06-22 08:00:00
6:30 PM,41.0,37.4,87,30.30,6.2,SE,9.2,-,N/A,,Unknown,130,2013-06-22 08:30:00
7:00 PM,44,38,73,30.36,,SE,6.9,,,,,130,2013-06-22 09:00:00
7:00 PM,44.6,39.2,81,30.33,6.2,SE,6.9,-,N/A,,Scattered Clouds,130,2013-06-22 09:00:00
7:30 PM,42.8,37.4,81,30.33,6.2,SSE,4.6,-,N/A,,Scattered Clouds,150,2013-06-22 09:30:00
8:00 PM,42.8,39.2,87,30.33,6.2,SE,5.8,-,N/A,,Mostly Cloudy,140,2013-06-22 10:00:00
8:30 PM,41.0,37.4,87,30.33,6.2,SE,5.8,-,N/A,,Scattered Clouds,140,2013-06-22 10:30:00
9:00 PM,38,36,88,30.38,,NNE,1.2,,,,,20,2013-06-22 11:00:00
9:00 PM,39.2,35.6,87,30.33,6.2,NNE,1.2,-,N/A,,Unknown,20,2013-06-22 11:00:00
9:30 PM,37.4,33.8,87,30.33,6.2,SE,3.5,-,N/A,,Unknown,140,2013-06-22 11:30:00
10:00 PM,36,34,89,30.39,,SSE,3.5,,,,,150,2013-06-22 12:00:00
10:00 PM,35.6,33.8,93,30.33,6.2,SSE,3.5,-,N/A,,Unknown,150,2013-06-22 12:00:00
10:30 PM,33.8,32.0,93,30.36,6.2,Calm,Calm,-,N/A,,Unknown,0,2013-06-22 12:30:00
11:00 PM,35.6,33.8,93,30.36,6.2,ENE,2.3,-,N/A,,Unknown,60,2013-06-22 13:00:00
11:30 PM,32.0,30.2,93,30.36,6.2,ESE,1.2,-,N/A,,Unknown,110,2013-06-22 13:30:00